Time,TemperatureF,DewpointF,PressureIn,WindDirection,WindDirectionDegrees,WindSpeedMPH,WindSpeedGustMPH,Humidity,HourlyPrecipIn,Conditions,Clouds,dailyrainin,SolarRadiationWatts/m^2,SoftwareType,DateUTC
2013-06-27 00:00:00,70.1,68.6,29.79,SW,217,0.0,0.0,95,0.00,,,0.00,0,Wunderground v.1.15,2013-06-27 04:00:00,
2013-06-27 00:10:00,70.5,69.0,29.79,SW,217,0.0,0.0,95,0.00,,,0.00,0,Wunderground v.1.15,2013-06-27 04:10:00,
2013-06-27 00:20:00,70.3,68.5,29.79,SW,217,0.0,0.0,94,0.00,,,0.00,0,Wunderground v.1.15,2013-06-27 04:20:00,
2013-06-27 05:30:00,66.6,65.7,29.75,SW,217,0.0,0.0,97,0.00,,,0.00,0,Wunderground v.1.15,2013-06-27 09:30:00,
2013-06-27 05:40:00,66.0,65.1,29.75,SW,217,0.0,0.0,97,0.00,,,0.00,0,Wunderground v.1.15,2013-06-27 09:40:00,
2013-06-27 05:50:00,66.2,65.3,29.75,SW,217,0.0,0.0,97,0.00,,,0.00,7,Wunderground v.1.15,2013-06-27 09:50:00,
2013-06-27 06:00:00,66.6,66.0,29.75,SW,217,0.0,0.0,98,0.00,,,0.00,12,Wunderground v.1.15,2013-06-27 10:00:00,
2013-06-27 06:10:00,66.5,65.9,29.75,SW,217,0.0,0.0,98,0.00,,,0.00,19,Wunderground v.1.15,2013-06-27 10:10:00,
2013-06-27 06:20:00,66.5,65.9,29.75,SW,217,0.0,0.0,98,0.00,,,0.00,23,Wunderground v.1.15,2013-06-27 10:20:00,
2013-06-27 06:30:00,66.6,66.0,29.75,SW,217,0.0,0.0,98,0.00,,,0.00,33,Wunderground v.1.15,2013-06-27 10:30:00,
2013-06-27 06:40:00,66.5,65.9,29.75,SW,217,0.0,0.0,98,0.00,,,0.00,26,Wunderground v.1.15,2013-06-27 10:40:00,
2013-06-27 06:50:00,66.8,66.2,29.75,SW,217,0.0,0.0,98,0.00,,,0.00,35,Wunderground v.1.15,2013-06-27 10:50:00,
2013-06-27 07:00:00,67.0,66.4,29.75,SW,217,0.0,0.0,98,0.00,,,0.00,91,Wunderground v.1.15,2013-06-27 11:00:00,
2013-06-27 07:10:00,68.2,67.6,29.75,SW,217,0.0,0.0,98,0.00,,,0.00,120,Wunderground v.1.15,2013-06-27 11:10:00,
2013-06-27 07:20:00,68.5,67.9,29.75,SW,217,0.0,0.0,98,0.00,,,0.00,97,Wunderground v.1.15,2013-06-27 11:20:00,
2013-06-27 07:30:00,68.7,68.1,29.75,SW,217,0.0,0.0,98,0.00,,,0.00,142,Wunderground v.1.15,2013-06-27 11:30:00,
2013-06-27 07:40:00,68.8,68.2,29.74,SW,217,0.0,0.0,98,0.00,,,0.00,135,Wunderground v.1.15,2013-06-27 11:40:00,
2013-06-27 07:50:00,69.5,68.9,29.74,SW,217,0.0,0.0,98,0.00,,,0.00,229,Wunderground v.1.15,2013-06-27 11:50:00,
2013-06-27 08:00:00,70.3,69.7,29.74,SW,217,0.0,0.0,98,0.00,,,0.00,288,Wunderground v.1.15,2013-06-27 12:00:00,
2013-06-27 08:10:00,71.1,70.5,29.74,SW,217,0.0,0.0,98,0.00,,,0.00,290,Wunderground v.1.15,2013-06-27 12:10:00,
2013-06-27 08:20:00,71.9,71.3,29.74,South,182,0.0,0.0,98,0.00,,,0.00,311,Wunderground v.1.15,2013-06-27 12:20:00,
2013-06-27 08:30:00,73.0,72.1,29.74,South,182,0.0,0.0,97,0.00,,,0.00,334,Wunderground v.1.15,2013-06-27 12:30:00,
2013-06-27 08:40:00,74.0,72.5,29.73,SE,142,0.0,0.0,95,0.00,,,0.00,350,Wunderground v.1.15,2013-06-27 12:40:00,
2013-06-27 08:50:00,75.0,72.5,29.73,East,101,0.0,0.0,92,0.00,,,0.00,338,Wunderground v.1.15,2013-06-27 12:50:00,
2013-06-27 09:00:00,75.6,72.5,29.73,ESE,116,0.0,0.0,90,0.00,,,0.00,443,Wunderground v.1.15,2013-06-27 13:00:00,
2013-06-27 09:10:00,76.3,72.5,29.73,ESE,117,0.0,0.0,88,0.00,,,0.00,515,Wunderground v.1.15,2013-06-27 13:10:00,
2013-06-27 09:20:00,76.9,72.7,29.72,SSE,151,0.0,0.0,87,0.00,,,0.00,538,Wunderground v.1.15,2013-06-27 13:20:00,
2013-06-27 09:30:00,77.1,72.6,29.72,SE,133,0.0,0.0,86,0.00,,,0.00,506,Wunderground v.1.15,2013-06-27 13:30:00,
2013-06-27 09:40:00,76.9,72.0,29.71,SE,140,0.0,0.0,85,0.00,,,0.00,628,Wunderground v.1.15,2013-06-27 13:40:00,
2013-06-27 09:50:00,77.8,72.6,29.71,SE,140,0.0,0.0,84,0.00,,,0.00,645,Wunderground v.1.15,2013-06-27 13:50:00,
2013-06-27 10:00:00,78.1,72.5,29.71,ESE,118,0.0,0.0,83,0.00,,,0.00,629,Wunderground v.1.15,2013-06-27 14:00:00,
2013-06-27 10:10:00,78.4,73.2,29.70,SSE,153,0.0,0.0,84,0.00,,,0.00,638,Wunderground v.1.15,2013-06-27 14:10:00,
2013-06-27 10:20:00,78.0,72.1,29.70,SE,141,3.0,9.0,82,0.00,,,0.00,668,Wunderground v.1.15,2013-06-27 14:20:00,
2013-06-27 10:30:00,78.7,72.7,29.69,East,98,6.0,6.0,82,0.00,,,0.00,670,Wunderground v.1.15,2013-06-27 14:30:00,
2013-06-27 10:40:00,78.5,72.9,29.69,SE,136,6.0,6.0,83,0.00,,,0.00,714,Wunderground v.1.15,2013-06-27 14:40:00,
2013-06-27 10:50:00,78.7,72.0,29.68,ESE,107,4.0,5.0,80,0.00,,,0.00,779,Wunderground v.1.15,2013-06-27 14:50:00,
2013-06-27 11:00:00,79.2,73.2,29.68,ESE,109,5.0,5.0,82,0.00,,,0.00,555,Wunderground v.1.15,2013-06-27 15:00:00,
2013-06-27 11:10:00,79.6,72.9,29.67,SE,128,5.0,5.0,80,0.00,,,0.00,761,Wunderground v.1.15,2013-06-27 15:10:00,
2013-06-27 11:20:00,79.8,72.3,29.67,South,171,5.0,5.0,78,0.00,,,0.00,990,Wunderground v.1.15,2013-06-27 15:20:00,
2013-06-27 11:30:00,80.1,74.5,29.67,ENE,70,4.0,6.0,83,0.00,,,0.00,1143,Wunderground v.1.15,2013-06-27 15:30:00,
2013-06-27 11:40:00,81.2,73.7,29.67,SSE,150,3.0,5.0,78,0.00,,,0.00,1051,Wunderground v.1.15,2013-06-27 15:40:00,
2013-06-27 11:50:00,81.3,73.0,29.67,South,173,4.0,4.0,76,0.00,,,0.00,914,Wunderground v.1.15,2013-06-27 15:50:00,
2013-06-27 12:00:00,80.7,72.4,29.66,SSE,148,3.0,4.0,76,0.00,,,0.00,904,Wunderground v.1.15,2013-06-27 16:00:00,
2013-06-27 12:10:00,80.4,72.5,29.66,SE,140,4.0,4.0,77,0.00,,,0.00,439,Wunderground v.1.15,2013-06-27 16:10:00,
2013-06-27 12:20:00,79.8,72.3,29.66,South,187,5.0,5.0,78,0.00,,,0.00,482,Wunderground v.1.15,2013-06-27 16:20:00,
2013-06-27 12:30:00,81.3,73.4,29.65,ESE,116,5.0,13.0,77,0.00,,,0.00,473,Wunderground v.1.15,2013-06-27 16:30:00,
2013-06-27 12:40:00,79.6,72.5,29.65,ESE,123,6.0,6.0,79,0.00,,,0.00,489,Wunderground v.1.15,2013-06-27 16:40:00,
2013-06-27 12:50:00,79.2,72.5,29.65,ENE,77,6.0,6.0,80,0.00,,,0.00,519,Wunderground v.1.15,2013-06-27 16:50:00,
2013-06-27 13:00:00,80.2,74.2,29.64,SSE,164,5.0,5.0,82,0.00,,,0.00,1213,Wunderground v.1.15,2013-06-27 17:00:00,
2013-06-27 13:10:00,80.3,73.6,29.63,SE,139,6.0,6.0,80,0.00,,,0.00,795,Wunderground v.1.15,2013-06-27 17:10:00,
2013-06-27 13:20:00,80.7,74.0,29.63,SSE,153,6.0,6.0,80,0.00,,,0.00,988,Wunderground v.1.15,2013-06-27 17:20:00,
2013-06-27 13:30:00,81.4,73.9,29.63,South,171,7.0,7.0,78,0.00,,,0.00,1028,Wunderground v.1.15,2013-06-27 17:30:00,
2013-06-27 13:40:00,79.2,71.7,29.62,SE,125,8.0,8.0,78,0.00,,,0.00,287,Wunderground v.1.15,2013-06-27 17:40:00,
2013-06-27 13:50:00,78.0,71.7,29.63,South,171,3.0,3.0,81,0.00,,,0.00,362,Wunderground v.1.15,2013-06-27 17:50:00,
2013-06-27 14:00:00,78.1,71.8,29.62,SSE,167,5.0,5.0,81,0.00,,,0.00,253,Wunderground v.1.15,2013-06-27 18:00:00,
2013-06-27 14:10:00,78.0,72.1,29.63,SSE,149,2.0,5.0,82,0.00,,,0.00,155,Wunderground v.1.15,2013-06-27 18:10:00,
2013-06-27 14:20:00,77.7,71.4,29.63,SSE,157,4.0,5.0,81,0.00,,,0.00,185,Wunderground v.1.15,2013-06-27 18:20:00,
2013-06-27 14:30:00,78.0,72.1,29.63,SSE,153,2.0,5.0,82,0.00,,,0.00,229,Wunderground v.1.15,2013-06-27 18:30:00,
2013-06-27 14:40:00,78.4,72.4,29.63,SSE,161,1.0,1.0,82,0.00,,,0.00,181,Wunderground v.1.15,2013-06-27 18:40:00,
2013-06-27 14:50:00,78.3,72.3,29.63,SSE,157,2.0,2.0,82,0.00,,,0.00,105,Wunderground v.1.15,2013-06-27 18:50:00,
2013-06-27 15:00:00,78.2,72.3,29.63,WSW,258,0.0,4.0,82,0.00,,,0.00,47,Wunderground v.1.15,2013-06-27 19:00:00,
2013-06-27 15:10:00,76.8,72.3,29.64,WSW,243,2.0,2.0,86,0.00,,,0.01,118,Wunderground v.1.15,2013-06-27 19:10:00,
2013-06-27 15:20:00,74.0,69.5,29.65,West,275,2.0,2.0,86,1.41,,,0.13,70,Wunderground v.1.15,2013-06-27 19:20:00,
2013-06-27 15:30:00,72.2,69.4,29.64,West,269,0.0,0.0,91,0.14,,,0.17,90,Wunderground v.1.15,2013-06-27 19:30:00,
2013-06-27 15:40:00,71.9,69.8,29.64,West,270,0.0,0.0,93,0.05,,,0.17,139,Wunderground v.1.15,2013-06-27 19:40:00,
2013-06-27 15:50:00,72.0,70.2,29.63,NNW,342,0.0,0.0,94,0.00,,,0.17,239,Wunderground v.1.15,2013-06-27 19:50:00,
2013-06-27 16:00:00,72.8,71.0,29.63,NNW,342,0.0,0.0,94,0.00,,,0.17,388,Wunderground v.1.15,2013-06-27 20:00:00,
2013-06-27 16:10:00,74.4,72.6,29.63,NNW,341,0.0,0.0,94,0.00,,,0.17,378,Wunderground v.1.15,2013-06-27 20:10:00,
2013-06-27 16:20:00,74.8,72.3,29.62,NNW,336,0.0,0.0,92,0.00,,,0.17,274,Wunderground v.1.15,2013-06-27 20:20:00,
2013-06-27 16:30:00,75.2,72.7,29.61,WSW,258,1.0,1.0,92,0.00,,,0.17,318,Wunderground v.1.15,2013-06-27 20:30:00,
2013-06-27 16:40:00,76.4,74.2,29.61,South,186,0.0,0.0,93,0.00,,,0.17,346,Wunderground v.1.15,2013-06-27 20:40:00,
2013-06-27 16:50:00,77.9,75.1,29.61,WSW,251,0.0,1.0,91,0.00,,,0.17,726,Wunderground v.1.15,2013-06-27 20:50:00,
2013-06-27 17:00:00,77.6,72.7,29.60,West,261,2.0,3.0,85,0.00,,,0.17,213,Wunderground v.1.15,2013-06-27 21:00:00,
2013-06-27 17:10:00,78.7,73.5,29.59,WSW,252,2.0,2.0,84,0.00,,,0.17,599,Wunderground v.1.15,2013-06-27 21:10:00,
2013-06-27 17:30:00,80.5,72.6,29.59,West,269,3.0,3.0,77,0.00,,,0.17,200,Wunderground v.1.15,2013-06-27 21:30:00,
2013-06-27 17:40:00,80.6,71.9,29.59,WSW,242,4.0,9.0,75,0.00,,,0.17,172,Wunderground v.1.15,2013-06-27 21:40:00,
2013-06-27 17:50:00,80.7,70.8,29.59,WSW,244,3.0,5.0,72,0.00,,,0.17,353,Wunderground v.1.15,2013-06-27 21:50:00,
2013-06-27 18:00:00,80.7,71.6,29.59,West,267,3.0,3.0,74,0.00,,,0.17,185,Wunderground v.1.15,2013-06-27 22:00:00,
2013-06-27 18:10:00,79.9,71.3,29.59,WSW,257,1.0,2.0,75,0.00,,,0.17,149,Wunderground v.1.15,2013-06-27 22:10:00,
2013-06-27 18:20:00,79.2,70.6,29.60,West,264,1.0,3.0,75,0.00,,,0.17,128,Wunderground v.1.15,2013-06-27 22:20:00,
2013-06-27 18:30:00,80.0,70.6,29.60,WSW,257,1.0,1.0,73,0.00,,,0.17,132,Wunderground v.1.15,2013-06-27 22:30:00,
2013-06-27 18:40:00,79.5,70.1,29.60,West,262,1.0,1.0,73,0.00,,,0.17,130,Wunderground v.1.15,2013-06-27 22:40:00,
2013-06-27 18:50:00,79.0,70.0,29.60,West,265,0.0,0.0,74,0.00,,,0.17,90,Wunderground v.1.15,2013-06-27 22:50:00,
2013-06-27 19:00:00,78.7,70.1,29.60,West,263,0.0,0.0,75,0.00,,,0.17,74,Wunderground v.1.15,2013-06-27 23:00:00,
2013-06-27 19:30:00,78.1,69.9,29.61,West,263,0.0,0.0,76,0.00,,,0.17,44,Wunderground v.1.15,2013-06-27 23:30:00,
2013-06-27 19:40:00,78.0,70.6,29.61,West,263,0.0,0.0,78,0.00,,,0.17,35,Wunderground v.1.15,2013-06-27 23:40:00,
2013-06-27 19:50:00,78.1,70.3,29.60,WSW,254,0.0,0.0,77,0.00,,,0.17,30,Wunderground v.1.15,2013-06-27 23:50:00,
2013-06-27 20:10:00,77.6,69.8,29.60,WSW,252,0.0,1.0,77,0.00,,,0.17,16,Wunderground v.1.15,2013-06-28 00:10:00,
2013-06-27 20:20:00,77.4,69.6,29.60,WSW,250,0.0,0.0,77,0.00,,,0.17,9,Wunderground v.1.15,2013-06-28 00:20:00,
2013-06-27 20:30:00,77.0,69.6,29.60,WSW,252,0.0,0.0,78,0.00,,,0.17,5,Wunderground v.1.15,2013-06-28 00:30:00,
2013-06-27 20:50:00,76.2,68.8,29.60,WSW,246,0.0,0.0,78,0.00,,,0.17,0,Wunderground v.1.15,2013-06-28 00:50:00,
2013-06-27 21:00:00,76.0,69.0,29.60,West,275,0.0,0.0,79,0.00,,,0.17,0,Wunderground v.1.15,2013-06-28 01:00:00,
2013-06-27 21:10:00,75.9,68.5,29.60,SW,235,0.0,0.0,78,0.00,,,0.17,0,Wunderground v.1.15,2013-06-28 01:10:00,
2013-06-27 21:20:00,75.5,68.9,29.61,SSE,164,0.0,0.0,80,0.00,,,0.17,0,Wunderground v.1.15,2013-06-28 01:20:00,
2013-06-27 21:30:00,75.4,68.4,29.61,WSW,245,0.0,0.0,79,0.00,,,0.18,0,Wunderground v.1.15,2013-06-28 01:30:00,
2013-06-27 21:40:00,75.3,68.3,29.61,WSW,250,0.0,0.0,79,0.00,,,0.18,0,Wunderground v.1.15,2013-06-28 01:40:00,
2013-06-27 22:00:00,75.2,68.2,29.62,WSW,253,0.0,0.0,79,0.00,,,0.18,0,Wunderground v.1.15,2013-06-28 02:00:00,
2013-06-27 22:10:00,75.0,68.4,29.61,WSW,253,0.0,0.0,80,0.00,,,0.18,0,Wunderground v.1.15,2013-06-28 02:10:00,
2013-06-27 22:20:00,74.8,68.2,29.62,WSW,253,0.0,0.0,80,0.00,,,0.18,0,Wunderground v.1.15,2013-06-28 02:20:00,
2013-06-27 22:30:00,74.6,68.0,29.62,WSW,254,0.0,1.0,80,0.00,,,0.18,0,Wunderground v.1.15,2013-06-28 02:30:00,
2013-06-27 22:40:00,74.3,68.1,29.62,WSW,257,0.0,2.0,81,0.00,,,0.18,0,Wunderground v.1.15,2013-06-28 02:40:00,
2013-06-27 22:50:00,74.3,68.1,29.61,WSW,254,1.0,1.0,81,0.00,,,0.18,0,Wunderground v.1.15,2013-06-28 02:50:00,
2013-06-27 23:00:00,74.5,67.9,29.60,West,263,1.0,1.0,80,0.00,,,0.18,0,Wunderground v.1.15,2013-06-28 03:00:00,
2013-06-27 23:20:00,74.2,67.6,29.60,WSW,257,1.0,5.0,80,0.00,,,0.18,0,Wunderground v.1.15,2013-06-28 03:20:00,
2013-06-27 23:40:00,74.4,67.5,29.60,West,259,1.0,3.0,79,0.00,,,0.18,0,Wunderground v.1.15,2013-06-28 03:40:00,
2013-06-27 23:50:00,74.2,67.3,29.59,West,260,1.0,3.0,79,0.00,,,0.18,0,Wunderground v.1.15,2013-06-28 03:50:00,